Tracking 19920 objects as of 13-Oct-2019
HD Live streaming from Space Station
objects crossing your sky now

ZHUHAI-1 03E

Track ZHUHAI-1 03E now!
10-day predictions


NORAD ID: 44539
Int'l Code: 2019-060F
Perigee: 514.1 km
Apogee: 524.4 km
Inclination: 97.4 °
Period: 94.9 minutes
Semi major axis: 6890 km
RCS: Unknown
Launch date: September 19, 2019
Source: People's Republic of China (PRC)
Launch site: Jiuquan Satellite Launch Center, China (JSC)
aabbcc
Your satellite tracking list
Your tracking list is empty




NASA's NSSDC Master Catalog

Two Line Element Set (TLE):
1 44539U 19060F   19286.81253667 -.00006110  00000-0 -29807-3 0  9994
2 44539  97.4047  37.0068 0007491 234.4175 241.7778 15.17936024  3736
Source of the keplerian elements: AFSPC